Temp_Advection
nan nan nan nan nan nan nan nan nan nan nan nan nan nan nan nan nan nan nan nan nan nan nan nan nan nan nan nan nan nan nan nan nan nan nan nan nan nan nan nan nan nan nan nan nan nan nan nan nan nan nan nan nan nan
nan 0 -0 -0 -0 -0 -0 -0 -1 -1 -1 -0 -0 -0 0 0 -0 -0 0 0 -0 0 -0 -0 -0 -0 -0 -0 -0 -0 -0 -0 -0 -0 -0 -0 -0 -0 0 -0 -0 -0 0 0 0 -0 -1 -0 -0 -1 -0 -0 -0 nan
nan -0 -0 -0 -0 -0 -0 -1 -1 -0 0 0 0 0 0 -0 -0 -0 -0 -0 -0 -0 -0 -0 0 0 0 -0 -0 -0 -0 -0 -0 0 0 0 0 0 -0 -0 0 -0 -1 0 0 -1 -0 -0 -0 -0 -0 -0 -0 nan
nan -0 -0 -0 -0 -0 -0 -1 -0 0 0 0 0 0 -0 -0 -0 -1 -0 -0 -0 -0 -0 -0 -0 0 0 -0 -0 -0 -0 -0 -0 -0 0 0 0 -0 0 0 -0 -0 -1 -0 -0 -0 -0 -1 -0 0 0 -0 -0 nan
nan -0 -0 -0 -0 -0 -0 -0 0 0 0 0 0 -0 -0 -0 -0 -1 -0 -0 -0 -0 -0 0 0 0 0 0 0 -0 -0 -0 -0 0 -0 -0 -0 -0 -0 -0 -1 -1 -0 -0 -0 -0 0 -0 0 0 0 -0 0 nan
nan -0 -0 -0 -0 -0 -0 0 0 0 0 0 -0 -0 -0 -0 -0 -0 -0 -0 -0 -0 -0 -0 -0 0 0 0 0 0 -0 -0 -0 -0 0 0 0 -0 -0 -0 -0 -0 -0 -0 -0 0 0 0 0 0 0 0 0 nan
nan -0 -0 -0 -0 -0 -0 0 -0 -0 -0 -0 -0 -0 -0 -0 -1 -0 -0 0 0 -0 -0 -0 -0 -0 -0 -0 0 -0 -0 -0 -0 -0 0 -0 -0 -0 -0 -0 -0 -0 0 0 0 0 -0 -0 -0 0 0 0 0 nan
nan -0 -0 -0 -0 -0 -0 -0 -0 -0 -0 -0 -0 -0 -0 -0 -0 -0 -0 -0 -0 -0 -1 -0 -1 -0 -0 -0 -0 0 0 -0 -0 -0 -0 -0 -1 -2 -0 -0 -0 -0 0 0 0 0 -0 0 0 0 0 0 0 nan
nan -0 -0 -0 -0 -0 -0 -0 -0 -0 -0 -0 -0 -0 0 -0 -0 -0 -0 -0 -0 -0 -1 -0 0 -0 -1 -0 -0 -0 -0 -0 -1 -0 -0 -0 -1 -0 -0 -0 0 0 0 0 0 0 0 0 -0 0 0 0 0 nan
nan -0 -0 -0 -0 -0 -0 -0 -0 -0 -0 -0 -0 -0 -0 -0 -0 -0 -0 -0 -0 -1 -1 -0 0 0 -1 -1 -0 -1 -1 -0 -0 -0 0 -1 0 -0 0 -0 -0 0 0 -0 0 0 0 0 0 0 0 -0 -0 nan
nan -0 -0 -0 -0 -0 -0 -1 -0 -0 -0 -0 -0 -0 -0 -0 -0 -0 -1 -1 -1 -1 -0 0 -0 0 -0 -0 -0 -0 0 -0 0 -0 -0 -0 0 -0 -0 -0 -0 0 0 0 0 -0 -0 0 0 0 0 -0 -0 nan
nan 0 0 -0 -0 -0 -0 -0 -0 -0 -0 -0 -0 -0 -0 -0 -1 -2 -0 -0 -0 -0 -0 -0 -0 0 0 0 0 -0 -0 0 -0 -0 -0 -0 -0 -0 -0 -0 -0 -0 0 0 0 0 -0 -0 -0 -0 -0 -0 0 nan
nan 0 0 0 -0 -0 -0 -0 -0 -0 -0 -0 -0 -0 -1 -1 -2 -0 0 -0 0 0 -0 0 -0 -0 -0 0 -0 -0 0 -0 0 -0 0 0 -0 -0 -0 -0 -0 -0 -0 0 0 0 -0 -0 -0 -0 -0 -0 -0 nan
nan 0 -0 -0 -0 -0 -0 -0 0 -0 -0 -0 -0 -1 -1 -0 -0 -0 -0 -0 -0 0 0 -0 -0 -0 -0 -0 -0 0 0 -0 -0 0 0 -0 -1 -0 -0 -0 -0 -0 -0 -0 -0 -0 -0 -0 -0 0 0 0 0 nan
nan -0 -0 -0 -0 -0 0 -0 -0 -0 -0 -0 -1 -0 0 0 -0 -0 -0 -0 0 0 0 0 -0 0 0 -0 -0 -0 -0 -0 -0 0 -0 -1 -0 -0 -0 -0 -0 -0 -0 -0 -0 -0 -0 -0 -0 0 0 0 0 nan
nan -0 -0 -0 -0 -0 -0 -0 -0 -0 -0 -0 -1 -0 -0 -0 -0 -0 0 0 0 0 -0 0 -0 -0 -0 0 -0 -0 0 -0 0 -0 -1 0 0 0 -0 -0 -0 0 0 0 -0 -0 -0 -0 -0 -0 0 0 0 nan
nan -0 -0 -0 -0 -0 -0 -0 -0 -0 -0 -0 -0 -0 -0 -0 -0 0 0 0 0 0 0 0 0 0 -0 -0 -0 -0 -0 -0 -0 -0 0 0 0 0 0 0 0 0 0 0 0 -0 -0 -0 -0 -0 0 0 -0 nan
nan 0 0 -0 -0 -0 -0 0 -0 -0 -0 -0 -0 0 0 0 0 0 0 0 0 0 -0 0 0 -0 -0 -0 -0 -1 -0 -0 0 0 0 0 0 0 0 0 0 0 0 0 0 0 -0 -0 -0 -0 -0 -0 -0 nan
nan -0 -0 -0 -0 -0 0 0 0 -0 -0 0 0 0 0 0 0 0 1 0 0 0 0 0 -0 -0 -1 -1 -1 -0 0 0 0 0 0 0 0 0 0 0 0 0 0 0 0 -0 -0 -0 -0 -0 -0 -0 -0 nan
nan -0 -0 -0 -0 0 0 0 0 0 0 0 0 0 0 0 0 0 0 0 0 0 0 0 -1 -1 -0 -0 0 0 0 0 0 0 0 0 0 0 0 0 0 0 0 0 0 0 0 -0 0 -0 0 0 0 nan
nan -0 -0 -0 0 0 0 0 0 0 0 0 0 0 0 0 0 0 0 0 0 0 -1 -2 -1 -0 0 0 0 0 0 0 0 0 0 0 0 0 0 0 0 0 0 0 0 0 0 -0 0 0 -0 0 1 nan
nan 0 0 0 0 0 0 0 0 0 0 0 0 0 0 0 0 0 0 0 -1 -1 -1 -0 0 0 0 0 0 0 0 0 0 0 0 0 0 0 0 0 0 0 0 0 0 0 0 -0 -0 -0 -0 -0 0 nan
nan 0 0 0 0 0 0 0 0 0 -0 0 0 -0 0 0 0 0 -0 -1 -1 -0 -0 0 0 0 0 0 0 0 0 0 0 0 0 0 0 0 0 0 0 0 0 0 0 0 0 0 -0 -0 -0 -0 -0 nan
nan 0 0 0 1 0 0 0 0 0 0 -0 -0 -0 -0 0 0 0 -0 -1 -0 -0 0 0 0 0 0 0 1 1 0 -0 -0 0 0 0 0 0 0 0 0 0 0 0 0 -0 0 0 0 0 0 -0 -0 nan
nan 0 0 0 0 -0 -0 -0 -0 0 0 0 0 0 -0 -0 -0 -0 -1 -1 -0 -0 -0 0 0 0 -0 -0 0 0 1 0 -0 -0 0 0 0 0 0 0 0 0 0 0 0 0 0 0 0 0 0 -0 -0 nan
nan 1 0 0 0 -0 -0 -0 -0 0 0 -0 0 -0 0 -0 0 -1 -1 -1 0 0 0 0 0 -0 0 0 -0 0 0 0 -0 -1 -0 0 0 0 0 0 -0 0 1 1 1 0 0 0 0 -0 -0 -0 0 nan
nan -0 0 0 -0 -0 -0 0 0 -0 -0 -0 -0 0 0 -0 -0 -1 -1 0 0 0 -0 -0 -0 0 1 0 -0 -0 -0 -0 -0 -0 -0 -0 -0 0 0 0 -0 0 0 0 0 0 -0 -0 -0 -0 -0 -0 0 nan
nan 0 0 1 0 1 -1 -0 0 -1 -1 -1 -1 -0 -1 -1 -1 -0 0 0 0 -0 0 0 0 0 -0 -0 -0 -0 -0 -0 -0 -0 -0 -0 -0 -0 0 0 0 0 0 -0 -0 0 0 -0 -0 -0 -0 0 0 nan
nan 0 -0 0 0 0 -0 -1 -1 -1 -1 0 -0 -0 -1 -1 0 0 0 0 0 0 0 0 0 0 0 0 0 -0 -0 -0 -0 -0 -0 -0 0 0 0 0 -0 -0 0 0 0 0 -0 -0 -0 0 0 -0 0 nan
nan 0 0 0 0 -1 -0 0 0 0 0 0 0 -0 -0 0 0 1 0 0 0 0 0 0 0 0 0 -0 -0 -0 -0 -0 -0 -0 -0 -0 -0 -0 -0 -0 -0 -0 -0 -0 -0 -0 0 0 -0 -0 -0 0 0 nan
nan 0 0 1 -0 -0 0 0 -0 0 0 -0 1 2 -0 -1 -0 0 1 0 0 0 0 0 -0 -0 -0 -0 -0 -0 -0 -0 -0 -0 -0 -0 -0 -0 -0 -0 -0 -0 -0 -0 -0 -0 0 0 0 0 0 -0 -0 nan
nan 0 0 0 -0 -0 -0 0 0 0 0 0 0 0 -0 -0 -0 0 0 0 0 0 0 0 -0 -0 -0 -0 -0 -0 -1 -1 -0 -0 -0 -0 -0 -0 -0 -0 0 0 -0 -0 0 0 -0 0 0 0 -0 0 0 nan
nan nan nan nan nan nan nan nan nan nan nan nan nan nan nan nan nan nan nan nan nan nan nan nan nan nan nan nan nan nan nan nan nan nan nan nan nan nan nan nan nan nan nan nan nan nan nan nan nan nan nan nan nan nan
Wind_Speed
11 10 10 11 11 14 18 21 23 24 23 23 22 21 19 19 18 15 9 6 5 4 6 8 5 5 7 5 1 5 3 1 2 0 2 3 2 3 1 4 5 6 6 3 2 2 7 10 2 2 2 6 6 7
10 9 10 11 14 18 21 22 23 22 22 22 22 22 21 19 18 15 6 9 8 4 1 7 8 8 9 5 5 4 3 1 1 0 1 2 2 2 1 2 1 1 2 3 1 1 4 13 9 9 6 5 4 8
9 8 10 14 17 18 20 21 20 20 21 22 21 21 19 18 17 14 8 7 3 3 2 3 6 6 5 9 4 3 2 4 1 3 1 2 1 2 1 3 2 3 10 2 3 5 7 10 12 12 12 10 8 8
8 9 12 15 17 18 19 19 19 21 22 22 20 19 17 14 15 13 8 12 6 4 2 3 7 9 7 4 7 5 11 10 9 5 2 1 1 3 1 2 3 3 9 4 4 4 5 15 11 9 12 13 13 11
8 10 13 14 16 17 17 18 19 21 23 22 19 16 11 13 16 9 5 10 16 2 2 0 3 15 10 4 5 6 6 4 2 2 2 1 2 3 2 3 4 8 4 2 2 8 2 6 6 5 8 12 13 12
9 12 12 13 14 15 16 17 19 21 23 22 17 10 9 13 14 8 5 9 15 4 3 1 0 8 11 9 10 7 8 1 2 2 1 2 3 2 3 3 3 10 9 11 3 8 11 8 7 6 9 10 12 14
10 11 10 12 13 14 15 17 20 22 23 20 14 5 8 10 14 10 6 7 7 4 2 3 3 6 18 8 7 7 7 6 3 3 4 4 3 4 3 2 5 6 7 5 3 6 5 2 6 8 9 12 13 16
10 9 10 12 14 16 17 18 20 23 23 18 9 2 4 4 4 8 10 14 4 5 4 3 3 4 16 7 7 10 6 3 6 3 2 4 4 5 3 2 3 3 5 8 9 5 9 11 10 11 11 12 14 15
10 10 10 12 15 16 18 19 20 23 22 15 7 1 1 3 3 4 4 7 12 8 4 4 3 4 14 6 6 5 5 3 4 2 2 4 3 3 3 3 3 6 5 6 7 9 10 10 11 10 9 10 11 13
10 10 11 13 16 17 19 19 20 22 18 11 3 1 3 4 3 2 2 2 4 7 6 3 7 2 10 8 4 10 5 1 2 3 6 3 1 1 1 1 4 4 4 8 7 8 9 10 9 9 9 10 9 10
9 10 12 15 16 18 19 20 20 21 13 7 3 3 4 4 2 2 3 6 7 6 6 6 5 2 6 2 2 6 2 1 3 3 3 2 2 3 2 5 7 6 7 8 9 9 9 9 8 7 7 7 6 5
8 11 13 15 18 17 18 19 19 19 13 7 3 4 4 4 4 6 1 4 5 0 6 6 7 6 6 4 3 5 1 3 2 6 3 2 3 3 6 9 8 8 9 8 9 8 8 7 5 4 3 3 2 1
9 10 12 14 15 16 16 17 17 15 11 3 3 3 5 6 8 5 3 4 3 4 5 7 5 4 3 3 2 3 4 3 5 4 2 4 3 8 10 11 11 10 9 7 6 6 5 3 2 2 1 2 3 4
9 12 13 13 15 17 16 16 14 10 3 2 4 5 4 4 1 4 4 4 2 4 9 9 6 3 3 3 1 2 2 3 3 2 4 3 11 12 11 11 10 9 8 6 5 4 3 2 2 3 5 6 7 8
11 13 12 13 17 16 14 13 10 4 2 3 3 1 1 3 2 4 4 2 1 5 7 6 5 2 3 2 1 2 5 3 4 3 3 9 15 15 14 12 11 9 8 7 5 3 4 4 5 6 7 8 9 10
10 12 12 16 15 13 12 9 4 3 3 3 4 4 5 2 2 4 6 4 3 4 4 1 1 3 3 2 2 5 3 4 3 3 5 10 16 15 13 12 11 9 7 4 1 3 5 6 6 7 8 8 9 10
11 9 15 14 12 11 8 3 1 3 3 3 3 6 5 2 3 5 6 5 4 2 1 3 2 7 1 3 3 3 4 3 4 4 6 8 13 14 13 12 12 10 6 2 2 4 5 6 7 8 8 8 11 11
12 13 13 11 9 7 1 0 2 3 3 3 4 7 7 5 5 6 6 7 4 3 3 3 1 2 4 4 3 3 3 4 4 6 6 6 8 10 12 12 12 10 6 4 4 2 2 4 6 8 10 12 13 13
15 15 11 8 5 3 1 1 1 3 2 4 4 6 6 5 9 10 9 8 7 7 2 2 2 3 4 6 4 4 6 7 7 8 9 10 11 12 13 14 13 11 8 6 3 5 5 5 8 11 13 15 16 17
15 12 6 4 3 2 2 1 1 2 3 5 6 5 4 4 6 7 8 7 6 4 4 3 4 5 4 3 6 7 7 7 7 8 10 12 13 14 15 15 14 11 9 8 10 6 2 4 7 11 15 16 17 21
13 6 6 3 3 4 2 3 2 1 2 3 3 4 4 6 6 6 5 6 8 6 7 11 13 10 9 10 7 5 5 4 5 7 11 14 12 13 14 16 15 13 13 13 11 6 2 6 11 14 18 20 20 21
7 6 4 3 4 3 1 3 1 2 2 2 3 3 4 3 4 4 4 8 6 7 8 7 8 7 7 6 5 7 8 8 8 8 10 12 13 13 15 16 16 16 17 15 11 6 5 10 15 18 21 22 22 22
4 2 3 4 4 3 2 3 2 2 2 3 1 1 3 3 3 2 4 7 6 8 11 12 10 8 7 8 10 12 13 14 13 11 10 11 12 13 15 14 16 18 20 16 10 8 10 14 17 20 22 24 25 25
3 3 3 3 5 3 2 3 2 1 1 2 2 4 2 1 2 2 3 4 5 5 6 9 10 10 11 12 14 16 14 15 16 15 13 12 14 14 15 15 16 19 20 15 15 14 17 21 23 25 26 27 27 25
3 5 4 3 5 3 2 2 3 2 2 2 1 4 2 1 1 1 3 4 5 6 7 8 8 9 11 14 14 16 16 16 16 16 14 14 13 14 15 17 19 21 20 20 21 20 24 26 27 29 28 27 25 23
2 5 4 9 4 5 6 3 5 6 3 2 5 1 0 2 1 5 4 4 6 5 6 7 10 13 18 20 21 21 17 14 13 14 12 11 12 15 17 18 19 21 23 22 23 25 25 28 29 28 26 21 22 22
3 5 5 6 4 5 3 3 4 3 3 5 3 2 2 1 5 5 5 8 6 6 8 13 19 22 19 11 8 7 7 6 6 6 7 9 12 14 14 14 17 19 19 19 20 23 25 24 23 20 21 22 20 25
5 5 4 7 6 5 4 2 4 6 4 7 9 4 5 8 5 4 6 7 7 13 16 13 9 4 1 2 2 3 3 5 6 7 8 9 9 10 11 12 14 16 15 16 19 21 20 18 19 21 22 25 17 16
4 4 6 2 4 5 7 8 6 5 6 10 5 4 6 6 6 6 8 12 12 8 3 4 6 7 6 4 3 3 5 8 10 12 13 14 15 14 13 15 17 17 16 15 12 12 15 17 19 18 15 22 24 30
4 9 4 4 4 5 4 8 4 6 7 11 8 9 12 15 15 14 12 8 7 7 8 6 4 3 2 3 4 6 10 13 13 14 17 20 22 20 18 15 14 12 10 11 15 15 15 14 14 17 23 27 26 26
3 8 4 5 4 3 4 7 10 13 14 12 17 17 14 9 10 11 9 11 12 10 7 4 1 5 9 11 12 14 16 16 18 19 21 21 18 16 16 14 8 10 13 14 15 15 14 16 21 24 23 24 23 19
5 5 3 2 2 4 8 4 4 4 5 6 5 5 4 4 4 5 15 14 12 9 5 4 7 10 12 14 15 16 20 23 22 22 19 16 18 18 12 10 17 16 18 12 10 12 18 22 20 20 23 21 19 19
2 4 4 3 2 2 3 7 3 4 4 3 2 2 3 3 3 8 19 18 10 4 3 8 13 14 14 16 18 19 21 22 22 22 19 18 17 16 17 18 15 12 5 12 18 21 20 19 20 20 18 18 19 18
Wind_Direction
96 83 65 44 22 5 356 348 346 345 345 350 352 352 349 345 345 346 325 309 312 270 339 355 4 6 336 360 51 352 359 321 54 277 201 257 196 239 72 152 173 165 153 199 125 156 252 354 343 179 317 352 20 88
97 77 49 22 6 355 352 352 354 358 3 5 4 1 359 353 346 346 317 314 310 239 24 24 39 38 21 339 306 298 299 302 37 25 352 355 313 27 154 257 35 319 167 176 118 125 32 40 55 43 56 69 47 109
90 58 30 6 359 358 358 1 8 5 6 6 3 358 354 350 347 351 350 356 99 111 86 19 333 335 334 0 326 305 330 342 327 344 229 243 253 99 239 255 123 45 15 91 125 53 46 46 50 53 59 69 82 111
66 35 15 6 4 3 6 9 9 3 359 358 356 356 359 6 3 12 57 54 45 127 54 25 32 9 345 326 342 298 273 293 300 301 282 163 160 32 243 189 81 328 333 355 81 43 67 49 50 60 82 95 100 108
44 18 10 11 7 9 12 11 9 2 357 357 356 358 13 11 358 17 89 33 8 90 89 203 27 19 14 26 344 355 335 304 313 318 31 275 334 13 354 76 41 355 6 11 69 335 147 52 65 67 101 97 108 118
24 11 12 10 7 10 12 10 6 360 356 356 359 12 31 26 20 46 4 6 9 108 114 58 350 12 19 22 26 28 11 21 34 27 25 43 21 45 86 82 2 17 30 34 1 59 102 105 88 85 108 109 117 120
8 7 8 5 1 4 3 360 359 355 351 351 358 42 40 68 54 58 51 357 25 35 69 18 347 356 4 14 357 23 25 38 56 43 34 341 17 20 48 102 331 14 28 34 102 140 73 50 91 95 108 113 118 115
9 8 359 354 355 357 355 353 355 352 348 344 347 68 57 94 77 55 41 33 48 70 52 65 298 358 5 348 355 2 8 18 40 36 31 26 355 57 60 317 0 17 60 63 64 87 119 121 114 104 106 112 116 113
8 5 353 349 351 352 351 352 352 352 351 348 341 31 119 47 41 10 25 44 49 55 81 67 15 291 346 360 349 347 352 35 14 54 7 3 351 54 238 272 11 61 73 79 86 99 114 114 107 104 108 108 109 110
360 353 346 349 349 351 350 351 352 353 354 355 4 82 82 17 350 359 15 27 40 37 48 75 343 292 336 337 341 357 11 44 58 277 325 74 234 243 303 187 135 102 116 135 106 104 110 108 108 106 106 105 103 106
347 344 345 346 349 348 349 349 352 355 358 357 358 52 28 36 48 38 54 44 6 29 15 359 358 298 347 34 288 2 258 326 52 285 99 17 322 246 154 149 145 113 110 110 110 111 112 109 106 105 109 111 110 108
340 339 341 341 343 346 347 347 351 355 357 357 23 62 54 39 47 74 325 358 52 240 351 340 324 306 311 312 297 334 130 29 263 325 64 349 253 199 164 159 149 133 120 111 104 101 103 101 100 99 99 103 112 125
333 333 338 334 338 343 342 348 350 352 352 40 52 66 17 6 37 77 345 323 1 354 356 336 318 307 305 301 346 41 45 246 316 41 222 224 181 174 166 163 158 150 144 137 129 116 103 88 67 46 346 307 292 290
337 340 340 340 339 340 343 346 352 354 26 62 44 26 83 344 232 183 182 193 229 272 306 323 288 307 310 355 113 58 252 52 34 25 244 243 187 173 170 167 166 161 151 136 115 93 70 36 346 315 302 295 293 291
340 341 338 333 335 337 341 345 351 3 81 78 58 81 74 145 161 173 173 197 247 311 317 312 292 308 314 15 68 31 7 292 200 225 227 184 179 180 177 172 167 160 145 128 97 51 6 338 322 310 304 299 294 287
339 331 335 336 336 334 338 346 14 105 77 82 91 91 146 158 224 209 210 218 243 300 318 296 80 37 286 155 40 226 135 231 245 219 204 186 189 185 181 180 175 166 155 138 62 350 340 335 329 325 320 312 299 295
338 336 327 331 330 332 338 352 96 80 95 112 110 132 160 169 195 195 213 227 241 276 203 105 48 228 1 17 286 198 202 223 219 235 218 216 203 191 187 188 189 187 184 201 315 329 330 334 339 337 330 322 309 305
340 334 328 329 330 329 347 141 130 119 118 133 155 170 194 208 210 229 239 241 226 207 197 213 181 109 206 191 263 245 187 212 228 236 243 215 209 215 215 213 206 207 217 253 289 318 2 359 355 344 331 320 307 301
333 331 327 326 329 321 242 173 151 144 141 160 180 194 215 231 234 245 247 240 236 225 234 202 92 210 235 218 219 231 236 235 233 224 234 240 239 237 231 223 222 225 235 252 206 141 100 50 18 4 352 339 328 323
325 324 316 317 328 267 225 172 199 197 168 173 199 195 210 228 233 241 242 241 216 201 190 203 218 224 231 261 288 281 254 255 262 255 260 260 254 244 239 237 235 234 238 213 180 184 202 352 345 340 339 334 324 323
320 306 307 291 265 229 221 197 198 197 176 189 194 208 240 241 237 234 228 211 190 214 234 235 243 256 264 283 273 262 244 245 277 285 289 282 272 257 247 238 232 237 220 193 192 201 255 337 338 337 336 339 330 323
289 287 287 251 231 212 218 193 181 186 193 180 209 231 239 239 228 213 199 201 229 230 216 243 261 260 264 256 249 249 243 254 281 301 299 290 276 262 250 237 237 227 206 197 211 236 309 334 333 332 332 328 328 320
293 275 228 222 208 208 228 209 214 205 120 184 202 315 242 230 229 234 249 229 242 239 242 247 256 255 246 238 245 251 257 263 275 290 297 296 284 271 260 245 229 222 209 211 235 263 307 324 324 318 320 322 322 318
276 236 222 209 203 181 180 185 212 192 186 79 82 283 285 233 273 256 250 249 231 241 246 233 236 245 254 259 261 269 278 276 279 276 277 284 289 285 273 257 240 230 224 229 247 267 290 309 315 315 317 319 320 316
235 216 200 192 176 139 78 354 336 69 231 211 125 292 307 303 2 278 236 265 226 246 232 232 249 267 282 287 295 296 294 283 273 273 271 269 281 288 272 257 252 243 237 246 261 282 294 298 307 312 315 316 314 315
217 202 179 197 176 170 183 170 203 207 159 227 229 251 246 85 34 251 234 216 226 220 228 257 283 293 295 299 296 290 285 285 282 279 280 272 279 286 286 273 270 264 257 267 275 284 288 296 304 308 310 310 311 307
232 237 195 195 168 164 129 139 148 130 168 201 213 126 82 242 246 249 218 213 216 227 274 296 301 299 298 304 312 316 307 291 303 306 293 294 295 293 292 285 282 284 285 284 283 285 293 299 304 307 309 312 310 315
240 202 179 181 184 201 149 139 158 206 220 173 146 188 205 199 234 199 211 212 256 292 298 297 295 300 54 58 30 12 351 343 334 333 330 320 307 298 290 281 276 278 285 285 289 294 296 300 304 306 305 305 309 299
211 190 183 167 194 214 223 199 218 204 190 186 181 224 239 235 265 251 271 290 295 284 243 154 120 108 99 88 53 5 340 328 323 322 317 309 302 298 292 290 293 296 293 290 291 294 295 298 301 309 302 302 304 307
202 185 192 184 170 228 209 209 232 233 233 228 246 265 269 273 275 278 281 273 210 185 171 155 131 111 54 2 340 334 327 324 323 317 311 308 309 311 310 311 309 300 294 303 308 305 298 295 294 299 301 305 310 313
201 194 223 219 246 237 251 265 269 273 268 263 263 258 265 281 283 270 222 187 177 171 164 151 63 3 354 342 334 330 330 328 322 314 309 310 314 315 315 314 305 314 311 308 301 293 293 297 304 306 308 313 317 313
204 210 219 255 253 298 306 293 280 262 253 258 266 263 278 255 254 210 180 176 168 150 114 51 9 348 337 332 326 321 319 318 314 311 313 314 312 314 314 317 317 313 316 300 279 289 301 308 310 312 315 316 316 315
243 222 239 281 306 303 323 327 274 299 263 281 304 284 240 251 252 186 188 177 162 137 15 352 339 333 327 324 323 318 311 309 308 308 301 300 298 301 304 299 290 297 264 287 300 305 308 312 313 315 316 314 314 315
Height
1494 1494 1494 1494 1493 1492 1488 1485 1482 1480 1475 1471 1466 1463 1460 1457 1454 1452 1451 1450 1451 1450 1448 1447 1446 1446 1443 1443 1443 1438 1439 1437 1438 1440 1435 1430 1431 1428 1431 1425 1432 1433 1438 1442 1436 1440 1434 1436 1431 1432 1438 1434 1432 1430
1493 1495 1493 1494 1492 1490 1486 1483 1479 1478 1473 1469 1465 1462 1458 1455 1452 1449 1448 1448 1448 1449 1450 1449 1449 1448 1447 1446 1445 1440 1440 1437 1437 1438 1436 1435 1431 1437 1436 1430 1426 1431 1431 1431 1431 1434 1444 1442 1441 1440 1437 1435 1434 1433
1494 1493 1493 1494 1490 1487 1483 1481 1477 1477 1472 1468 1464 1461 1457 1453 1449 1447 1446 1446 1446 1448 1450 1450 1449 1449 1447 1445 1444 1445 1440 1439 1438 1437 1436 1436 1439 1434 1437 1433 1428 1430 1433 1432 1438 1447 1447 1446 1445 1442 1440 1439 1437 1437
1493 1493 1492 1490 1489 1486 1482 1479 1477 1475 1472 1467 1463 1459 1456 1452 1449 1447 1446 1446 1446 1447 1449 1451 1449 1447 1445 1445 1444 1443 1441 1440 1439 1438 1436 1438 1440 1433 1435 1433 1437 1449 1442 1445 1447 1450 1449 1449 1448 1447 1445 1443 1442 1442
1493 1492 1490 1488 1487 1485 1481 1479 1476 1474 1471 1466 1462 1459 1455 1452 1449 1447 1447 1447 1447 1449 1449 1450 1449 1448 1445 1443 1443 1441 1440 1439 1438 1438 1438 1441 1436 1437 1436 1439 1456 1457 1457 1453 1451 1455 1453 1454 1452 1450 1448 1447 1447 1446
1492 1490 1489 1487 1486 1483 1480 1478 1475 1473 1469 1465 1461 1458 1456 1453 1449 1448 1449 1450 1446 1445 1450 1452 1450 1449 1446 1444 1442 1441 1439 1438 1439 1439 1440 1440 1440 1441 1451 1461 1464 1462 1460 1458 1457 1456 1454 1455 1454 1453 1452 1451 1451 1450
1490 1488 1488 1487 1485 1481 1478 1476 1474 1471 1467 1463 1461 1457 1457 1454 1453 1453 1456 1454 1450 1448 1450 1452 1450 1449 1447 1444 1443 1442 1441 1440 1440 1441 1442 1442 1441 1441 1449 1462 1464 1463 1461 1459 1458 1458 1457 1456 1456 1456 1455 1455 1455 1455
1488 1487 1487 1485 1482 1479 1476 1474 1472 1469 1465 1460 1458 1456 1456 1455 1455 1455 1455 1453 1451 1450 1451 1457 1456 1451 1450 1447 1445 1444 1442 1442 1442 1443 1444 1445 1443 1447 1467 1466 1465 1464 1463 1461 1459 1458 1457 1458 1459 1458 1459 1459 1459 1460
1486 1486 1485 1483 1479 1476 1474 1472 1470 1467 1462 1458 1456 1455 1455 1455 1456 1456 1456 1455 1453 1455 1455 1462 1469 1469 1454 1451 1449 1446 1444 1447 1446 1448 1448 1448 1457 1469 1466 1465 1465 1463 1463 1463 1462 1462 1461 1461 1461 1462 1462 1462 1463 1463
1486 1485 1483 1480 1477 1474 1471 1470 1468 1464 1459 1457 1456 1455 1454 1456 1456 1457 1456 1457 1455 1458 1461 1467 1468 1467 1463 1456 1452 1450 1447 1452 1458 1454 1449 1457 1469 1465 1464 1464 1464 1464 1464 1464 1464 1464 1464 1463 1464 1464 1465 1465 1466 1466
1485 1483 1480 1478 1475 1472 1470 1468 1465 1462 1458 1457 1455 1455 1455 1455 1456 1457 1458 1460 1464 1469 1470 1470 1469 1468 1464 1464 1461 1456 1458 1456 1467 1458 1456 1462 1472 1463 1463 1463 1464 1464 1464 1464 1465 1465 1465 1466 1466 1467 1467 1468 1468 1469
1483 1481 1478 1475 1472 1470 1469 1466 1463 1460 1457 1457 1456 1455 1455 1457 1457 1461 1476 1470 1473 1478 1474 1471 1470 1468 1465 1463 1461 1458 1462 1460 1465 1457 1462 1470 1464 1461 1461 1463 1464 1465 1466 1466 1466 1467 1467 1467 1468 1468 1468 1469 1469 1469
1480 1479 1475 1473 1471 1469 1468 1465 1462 1458 1456 1455 1455 1456 1459 1463 1472 1482 1490 1482 1481 1474 1473 1471 1470 1467 1465 1464 1463 1463 1466 1466 1458 1468 1470 1467 1459 1460 1461 1462 1464 1465 1466 1467 1467 1467 1468 1468 1468 1468 1468 1468 1468 1468
1478 1475 1472 1471 1469 1468 1466 1463 1460 1458 1456 1456 1457 1466 1471 1481 1481 1479 1478 1476 1475 1473 1472 1471 1468 1468 1465 1464 1465 1469 1465 1464 1472 1476 1469 1460 1457 1459 1461 1463 1464 1465 1466 1466 1467 1467 1467 1467 1467 1467 1466 1466 1466 1465
1475 1472 1470 1469 1466 1466 1464 1461 1458 1457 1457 1458 1460 1474 1475 1472 1472 1473 1473 1473 1473 1472 1471 1469 1468 1468 1466 1468 1467 1468 1471 1475 1462 1463 1458 1453 1455 1457 1459 1461 1463 1464 1465 1465 1466 1466 1466 1466 1465 1465 1464 1464 1463 1462
1472 1470 1468 1466 1464 1463 1461 1458 1457 1456 1457 1460 1463 1469 1471 1472 1472 1472 1471 1471 1471 1470 1470 1470 1470 1473 1473 1470 1470 1473 1471 1471 1459 1453 1451 1452 1453 1455 1457 1459 1461 1462 1463 1464 1464 1464 1464 1463 1462 1462 1461 1460 1459 1458
1469 1468 1466 1465 1462 1461 1459 1457 1457 1456 1458 1461 1464 1465 1467 1468 1468 1468 1468 1469 1470 1470 1470 1470 1476 1473 1469 1478 1473 1461 1464 1454 1450 1450 1450 1451 1452 1453 1455 1457 1458 1460 1460 1461 1461 1461 1461 1461 1460 1459 1458 1457 1456 1455
1465 1465 1463 1462 1460 1458 1457 1457 1456 1457 1458 1461 1462 1463 1464 1465 1465 1466 1466 1467 1468 1468 1468 1469 1467 1472 1475 1476 1464 1452 1450 1450 1450 1450 1450 1451 1452 1453 1454 1454 1456 1457 1457 1458 1458 1458 1458 1458 1457 1456 1455 1453 1452 1451
1462 1461 1460 1459 1458 1458 1457 1457 1457 1456 1457 1458 1459 1461 1462 1462 1462 1462 1463 1463 1465 1465 1466 1465 1468 1469 1459 1450 1449 1448 1449 1449 1449 1449 1450 1450 1450 1451 1451 1452 1453 1454 1454 1455 1455 1456 1456 1455 1454 1453 1451 1450 1448 1446
1460 1458 1457 1457 1457 1456 1456 1456 1456 1455 1456 1457 1457 1459 1459 1459 1459 1458 1458 1460 1461 1463 1462 1461 1454 1448 1448 1447 1447 1447 1447 1447 1447 1447 1447 1447 1447 1447 1447 1448 1449 1450 1450 1451 1452 1453 1453 1452 1451 1449 1448 1445 1443 1441
1457 1456 1455 1455 1455 1455 1455 1453 1454 1455 1454 1455 1456 1457 1457 1456 1456 1455 1454 1456 1458 1455 1451 1446 1444 1445 1445 1445 1445 1445 1445 1445 1445 1445 1444 1442 1443 1442 1443 1443 1444 1445 1446 1447 1448 1449 1449 1448 1447 1445 1443 1441 1438 1436
1454 1453 1453 1452 1453 1453 1453 1453 1454 1454 1455 1454 1455 1454 1454 1453 1452 1451 1452 1452 1449 1442 1442 1441 1442 1442 1442 1442 1442 1442 1442 1442 1442 1441 1440 1438 1437 1437 1437 1438 1439 1440 1441 1443 1444 1444 1444 1443 1442 1440 1437 1435 1433 1430
1452 1451 1451 1451 1452 1451 1453 1452 1452 1452 1452 1452 1452 1452 1451 1450 1450 1451 1449 1444 1439 1438 1438 1438 1439 1439 1439 1439 1439 1439 1439 1439 1438 1437 1436 1435 1434 1434 1433 1434 1434 1436 1437 1438 1439 1439 1438 1438 1436 1434 1432 1429 1426 1423
1450 1449 1448 1447 1448 1449 1450 1450 1450 1450 1450 1451 1453 1453 1450 1449 1450 1449 1446 1437 1435 1434 1435 1435 1436 1436 1436 1436 1435 1435 1435 1434 1433 1433 1432 1431 1430 1430 1430 1430 1431 1431 1433 1434 1434 1433 1433 1431 1430 1427 1425 1422 1418 1415
1449 1446 1447 1444 1445 1447 1449 1450 1449 1450 1452 1453 1455 1451 1449 1449 1451 1451 1443 1432 1431 1432 1432 1433 1433 1433 1432 1431 1431 1430 1429 1428 1427 1426 1427 1426 1426 1426 1425 1425 1426 1426 1428 1428 1427 1427 1426 1424 1422 1419 1417 1414 1411 1408
1445 1441 1441 1437 1440 1443 1443 1449 1450 1448 1449 1451 1450 1448 1448 1449 1452 1443 1433 1429 1429 1429 1430 1430 1430 1429 1428 1426 1425 1423 1423 1422 1421 1420 1421 1421 1421 1421 1420 1420 1420 1421 1422 1422 1421 1420 1418 1416 1414 1412 1409 1407 1405 1403
1440 1436 1435 1436 1436 1437 1440 1440 1441 1442 1447 1447 1446 1448 1450 1450 1448 1430 1426 1426 1427 1427 1427 1426 1425 1423 1421 1420 1419 1417 1417 1417 1417 1418 1418 1417 1417 1416 1415 1415 1414 1415 1414 1414 1413 1412 1410 1408 1406 1404 1402 1400 1398 1396
1433 1432 1435 1435 1434 1435 1436 1437 1439 1439 1436 1436 1438 1442 1438 1436 1428 1423 1423 1424 1424 1424 1422 1421 1419 1418 1418 1418 1418 1417 1417 1416 1416 1416 1415 1414 1413 1412 1411 1410 1409 1408 1408 1407 1405 1404 1403 1401 1400 1398 1396 1393 1392 1390
1430 1430 1432 1432 1433 1432 1430 1429 1427 1427 1428 1429 1430 1428 1423 1421 1420 1420 1420 1420 1419 1419 1418 1418 1418 1418 1418 1418 1417 1417 1416 1415 1414 1413 1411 1410 1409 1408 1407 1405 1404 1403 1401 1400 1399 1399 1397 1396 1394 1393 1390 1388 1386 1383
1427 1429 1429 1430 1430 1428 1424 1425 1425 1424 1425 1425 1424 1421 1419 1416 1416 1416 1416 1415 1416 1416 1417 1418 1418 1418 1418 1418 1417 1416 1414 1412 1410 1409 1407 1405 1403 1402 1400 1398 1397 1396 1395 1394 1393 1391 1390 1389 1388 1387 1385 1382 1378 1375
1426 1427 1427 1426 1423 1422 1422 1422 1421 1421 1420 1419 1417 1416 1414 1414 1412 1411 1411 1413 1414 1416 1416 1417 1417 1417 1416 1415 1414 1412 1411 1408 1406 1404 1401 1399 1398 1396 1394 1393 1392 1391 1390 1389 1387 1385 1385 1384 1382 1379 1377 1374 1372 1369
1424 1424 1425 1424 1422 1421 1421 1420 1418 1416 1414 1413 1411 1411 1411 1410 1409 1408 1410 1412 1414 1415 1415 1416 1415 1415 1413 1411 1409 1407 1404 1402 1400 1398 1396 1394 1392 1391 1389 1388 1387 1385 1384 1383 1382 1381 1380 1378 1375 1373 1371 1368 1366 1363
1423 1423 1422 1422 1421 1420 1421 1420 1417 1414 1413 1411 1411 1410 1410 1409 1407 1408 1409 1411 1413 1413 1414 1414 1413 1411 1410 1407 1405 1402 1399 1396 1393 1391 1389 1388 1387 1386 1385 1384 1382 1380 1379 1378 1377 1375 1373 1372 1369 1368 1365 1363 1360 1358